EHI
0 0 0 0 0 1 0 0 1 4 12 22 20 9 2 0 0 0 0 0 0 0 0 0 0 0 0 0 0 0 0 0 0 0 0 0 0 0 0 0 0 0 0 0
0 0 0 0 0 1 1 1 2 5 11 16 13 6 2 0 0 0 0 0 0 0 0 0 0 0 0 0 0 0 0 0 0 0 0 0 0 0 0 0 0 0 0 0
0 0 0 0 0 0 1 2 3 5 7 7 4 2 1 0 0 0 0 0 0 0 0 0 0 0 0 0 0 0 0 0 0 0 0 0 0 0 0 0 0 0 0 0
0 0 0 0 0 0 1 2 3 3 2 1 0 0 0 0 0 0 0 0 0 0 0 0 0 0 0 0 0 0 0 0 0 0 0 0 0 0 0 0 0 0 0 0
0 0 0 0 0 0 0 1 1 1 0 0 0 0 0 0 0 0 0 0 0 0 0 0 0 0 0 0 0 0 0 0 0 0 0 0 0 0 0 0 0 0 0 0
0 0 0 0 0 0 0 0 0 0 0 0 0 0 0 0 0 0 0 0 0 0 0 0 0 0 0 0 0 0 0 0 0 0 0 0 0 0 0 0 0 0 0 0
0 0 0 0 0 0 0 0 0 0 0 0 0 0 0 0 0 0 0 0 0 0 0 0 0 0 0 0 0 0 0 0 0 0 0 0 0 0 0 0 0 0 0 0
0 0 0 0 0 0 0 0 0 0 0 0 0 0 0 0 0 0 0 0 0 0 0 0 0 0 0 0 0 0 0 0 0 0 0 0 0 0 0 0 0 0 0 0
0 0 0 0 0 0 0 0 0 0 0 0 0 0 0 0 0 0 0 0 0 0 0 0 0 0 0 0 0 0 0 0 0 0 0 0 0 0 0 0 0 0 0 0
0 0 0 0 0 0 0 0 0 0 0 0 0 0 0 0 0 0 0 0 0 0 0 0 0 0 0 0 0 0 0 0 0 0 0 0 0 0 0 0 0 0 0 0
0 0 0 0 0 0 0 0 0 0 0 0 0 0 0 0 0 0 0 0 0 0 0 0 0 0 0 0 0 0 0 0 0 0 0 0 0 0 0 0 0 0 0 0
0 0 0 0 0 0 0 0 0 0 0 0 0 0 0 0 0 0 0 0 0 0 0 0 0 0 0 0 0 0 0 0 0 0 0 0 0 0 0 0 0 0 0 0
0 0 0 0 0 0 0 0 0 0 0 0 0 0 0 0 0 0 0 0 0 0 0 0 0 0 0 0 0 0 0 0 0 0 0 0 0 0 0 0 0 0 0 0
0 0 0 0 0 0 0 0 0 0 0 0 0 0 0 0 0 0 0 0 0 0 0 0 0 0 0 0 0 0 0 0 0 0 0 0 0 0 0 0 0 0 0 0
0 0 0 0 0 0 0 0 0 0 0 0 0 0 0 0 0 0 0 0 0 0 0 0 0 0 0 0 0 0 0 0 0 0 0 0 0 0 0 0 0 0 0 0
0 0 0 0 0 0 0 0 0 0 0 0 0 0 0 0 0 0 0 0 0 0 0 0 0 0 0 0 0 0 0 0 0 0 0 0 0 0 0 0 0 0 0 0
0 0 0 0 0 0 0 0 0 0 0 0 0 0 0 0 0 0 0 0 0 0 0 0 0 0 0 0 0 0 0 0 0 0 0 0 0 0 0 0 0 0 0 0
0 0 0 0 0 0 0 0 0 0 0 0 0 0 0 0 0 0 0 0 0 0 0 0 0 0 0 0 0 0 0 0 0 0 0 0 0 0 0 0 0 0 0 0
0 0 0 0 0 0 0 0 0 0 0 0 0 0 0 0 0 0 0 0 0 0 0 0 0 0 0 0 0 0 0 0 0 0 0 0 0 0 0 0 0 0 0 0
0 0 0 0 0 0 0 0 0 0 0 0 0 0 0 0 0 0 0 0 0 0 0 0 0 0 0 0 0 0 0 0 0 0 0 0 0 0 0 0 0 0 0 0
0 0 0 0 0 0 0 0 0 0 0 0 0 0 0 0 0 0 0 0 0 0 0 0 0 0 0 0 0 0 0 0 0 0 0 0 0 0 0 0 0 0 0 0
0 0 0 0 0 0 0 0 0 0 0 0 0 0 0 0 0 0 0 0 0 0 0 0 0 0 0 0 0 0 0 0 0 0 0 0 0 0 0 0 0 0 0 0
0 0 0 0 0 0 0 0 0 0 0 0 0 0 0 0 0 0 0 0 0 0 0 0 0 0 0 0 0 0 0 0 0 0 0 0 0 0 0 0 0 0 0 0
0 0 0 0 0 0 0 0 0 0 0 0 0 0 0 0 0 0 0 0 0 0 0 0 0 0 0 0 0 0 0 0 0 0 0 0 0 0 0 0 0 0 0 0
0 0 0 0 0 0 0 0 0 0 0 0 0 0 0 0 0 0 0 0 0 0 0 0 0 0 0 0 0 0 0 0 0 0 0 0 0 0 0 0 0 0 0 0
0 0 0 0 0 0 0 0 0 0 0 0 0 0 0 0 0 0 0 0 0 0 0 0 0 0 0 0 0 0 0 0 0 0 0 0 0 0 0 0 0 0 0 0
0 0 0 0 0 0 0 0 0 0 0 0 0 0 0 0 0 0 0 0 0 0 0 0 0 0 0 0 0 0 0 0 0 0 0 0 0 0 0 0 0 0 0 0
Wind_Speed
5 6 5 4 8 10 10 8 6 3 5 5 9 12 13 12 12 12 12 11 11 10 9 9 9 10 11 11 10 11 11 11 10 9 9 8 7 7 6 5 5 4 4 3
9 5 5 2 2 5 6 6 7 7 9 10 12 12 11 11 11 12 12 12 11 10 10 10 10 10 11 10 10 10 10 10 10 9 8 7 6 5 5 5 5 4 5 7
10 10 5 2 8 7 8 12 10 8 8 12 13 11 9 9 11 11 11 11 11 10 10 9 9 9 9 9 9 9 10 9 8 7 7 5 4 4 4 4 4 4 5 6
7 7 3 7 9 9 10 15 14 13 13 14 14 13 13 11 12 12 11 11 10 9 9 8 8 8 8 8 8 8 8 7 6 5 5 3 4 4 4 3 3 3 3 4
5 4 4 7 10 10 7 10 11 11 13 15 15 15 13 12 12 12 10 10 8 7 7 7 7 7 7 7 7 7 7 6 4 3 3 3 4 3 3 2 2 1 2 2
6 6 4 5 7 7 3 6 9 9 8 8 6 7 6 8 11 11 10 8 8 7 7 6 6 6 7 7 7 6 5 4 3 2 3 4 4 3 2 2 2 2 2 1
5 3 6 9 11 8 3 5 7 10 10 9 8 9 10 10 10 10 9 9 7 7 6 6 5 5 6 6 5 5 5 4 3 3 3 4 3 2 2 2 2 2 2 1
6 4 5 12 9 9 7 8 10 11 13 15 15 15 13 11 10 10 9 8 7 7 6 5 5 5 5 5 4 4 4 4 4 2 2 4 2 1 1 2 2 2 2 2
5 5 6 9 10 8 7 8 8 9 12 14 15 14 13 11 10 9 8 7 7 7 7 6 5 5 5 4 4 3 4 3 2 2 2 1 0 0 1 1 2 2 2 2
4 7 8 9 9 8 7 6 6 8 11 13 14 14 12 10 9 9 8 7 7 7 7 5 4 4 3 4 3 3 3 2 2 2 2 1 1 1 1 2 4 4 4 4
3 6 8 9 8 7 6 5 6 7 10 12 14 13 12 10 9 8 7 7 6 6 6 6 5 4 4 3 2 2 1 1 2 2 2 2 2 1 3 5 4 4 5 6
4 5 4 6 6 5 4 5 6 8 11 13 13 13 12 10 8 8 7 7 7 6 6 6 5 5 4 3 2 1 0 2 2 1 2 2 1 3 6 5 7 7 5 4
6 6 6 6 6 6 5 6 8 11 13 14 13 12 11 10 9 8 8 8 7 7 6 5 5 5 4 3 2 1 1 2 4 3 2 1 1 1 4 4 3 3 1 2
5 3 5 7 7 7 8 9 11 13 13 13 12 11 11 10 10 9 8 7 6 6 6 5 5 4 3 2 1 2 2 1 3 3 3 2 2 2 2 3 4 3 3 3
5 6 7 8 8 8 9 10 12 13 13 12 11 11 11 10 10 9 8 7 6 5 5 4 4 3 2 1 2 3 3 1 2 4 3 2 2 3 4 5 4 3 2 1
8 8 8 9 9 9 10 11 12 13 12 12 12 11 11 11 9 8 7 6 5 5 5 4 4 4 3 2 4 4 2 1 2 4 3 2 3 4 5 5 4 4 3 4
8 8 9 10 10 10 11 11 12 12 12 12 12 11 11 10 8 7 6 6 5 5 4 4 6 7 6 5 6 6 1 5 4 2 4 5 5 5 5 4 4 3 3 3
8 8 9 10 11 11 12 12 12 12 12 12 12 10 9 8 7 6 5 5 4 4 5 6 6 7 7 7 6 7 5 3 3 5 6 5 4 4 4 4 3 3 2 2
11 11 11 12 12 12 13 12 12 11 11 11 10 9 8 8 7 5 4 2 3 5 5 5 3 5 4 5 5 5 3 3 4 5 4 3 1 3 3 3 4 4 4 4
12 13 13 13 13 13 13 12 12 11 9 9 9 9 8 7 6 5 3 5 5 5 4 3 4 4 4 5 6 5 4 4 5 4 3 3 4 4 4 4 5 5 5 5
14 14 14 14 13 13 13 12 11 10 10 9 8 8 7 6 5 3 2 5 4 4 4 1 2 5 6 7 9 4 5 4 4 4 4 4 4 4 5 5 5 5 5 5
14 13 14 13 13 12 11 10 10 11 10 9 9 8 7 5 4 4 6 5 5 5 4 4 5 6 9 10 6 5 6 4 4 4 4 4 4 5 5 5 6 6 6 5
12 12 13 13 12 12 11 10 10 10 9 8 8 7 6 4 3 4 5 4 5 5 5 6 5 7 11 8 3 5 5 4 4 4 4 4 5 5 5 6 6 5 5 4
12 12 12 11 11 11 11 10 10 8 8 8 8 6 5 4 4 7 7 6 5 4 4 2 3 7 9 5 3 5 5 4 4 4 5 5 6 6 6 6 5 5 5 5
12 12 12 12 11 9 9 10 10 9 9 7 8 7 6 3 5 7 6 7 7 4 4 5 8 8 7 3 7 7 6 6 6 5 6 5 6 6 6 5 5 5 4 4
12 11 10 9 7 7 8 8 8 8 8 7 7 6 5 5 7 6 5 6 6 6 5 5 5 5 2 6 6 6 5 4 4 5 6 6 6 6 5 5 6 5 4 4
12 10 8 9 9 9 9 8 8 8 8 8 7 7 6 6 6 6 6 5 4 3 2 3 4 6 6 6 6 5 5 5 5 5 5 5 5 5 4 5 4 4 4 5
Wind_Direction
282 213 227 295 323 329 323 319 314 9 67 101 105 112 114 116 119 117 113 108 102 97 92 88 86 86 88 91 92 94 96 95 92 90 87 84 80 73 66 55 57 49 43 41
293 252 232 219 294 308 316 354 13 53 67 73 85 93 105 116 120 115 111 106 100 92 86 82 80 83 82 82 85 90 93 93 93 91 87 83 79 74 66 55 42 32 37 52
300 306 282 63 24 21 27 28 26 49 81 95 86 82 93 107 109 108 107 101 92 85 77 74 76 81 84 84 86 89 90 91 93 94 92 87 88 81 69 56 48 43 47 66
294 303 323 58 23 26 47 46 44 69 83 88 88 76 64 75 92 95 92 89 86 86 86 82 82 86 90 92 94 98 97 97 99 99 97 93 85 73 65 52 40 42 59 67
306 310 84 39 7 357 17 54 48 80 102 111 111 86 60 59 80 92 96 100 99 99 101 101 101 106 108 105 104 104 103 101 96 95 96 91 80 69 61 49 24 18 76 61
317 330 48 29 343 319 308 71 44 76 105 132 127 90 84 83 91 94 95 99 104 104 103 101 103 108 110 112 111 112 114 113 108 92 82 79 68 54 46 15 9 18 42 12
332 356 71 4 357 346 23 63 56 72 81 87 78 100 117 110 101 101 103 105 108 109 106 105 109 111 112 115 120 130 133 134 128 108 109 100 82 56 13 2 360 336 332 331
2 18 41 9 28 48 79 92 84 85 94 99 104 111 116 114 111 111 111 113 115 111 106 107 112 115 116 123 141 152 141 127 110 95 82 101 102 72 358 330 312 303 306 326
35 69 84 62 73 83 90 91 94 103 116 121 122 122 120 118 117 118 119 118 116 113 111 110 116 125 129 142 152 136 118 110 108 101 79 74 358 303 317 326 333 336 346 360
76 103 96 83 82 78 83 94 102 116 127 130 126 126 125 125 125 124 123 123 125 124 120 122 131 129 120 121 123 123 128 143 174 165 176 183 283 327 14 13 10 1 7 2
76 101 102 83 73 72 77 92 110 122 130 131 130 131 132 131 131 129 128 128 130 124 121 119 117 109 105 108 113 123 150 203 229 207 193 221 209 47 36 64 59 26 14 2
62 54 67 87 74 64 83 102 117 121 122 127 131 131 131 129 129 128 127 125 120 117 111 107 107 102 95 97 95 81 333 277 269 235 234 264 175 130 70 104 114 94 67 22
60 50 63 77 73 68 82 103 115 121 122 123 126 129 129 128 130 128 123 118 118 116 110 106 96 86 82 76 64 41 333 325 317 326 318 329 327 159 150 130 122 120 94 345
73 69 88 81 82 85 93 99 108 113 118 122 126 128 129 129 128 123 118 118 118 115 113 107 95 82 72 68 29 328 317 345 316 323 322 334 346 9 94 139 150 158 199 257
83 77 97 105 103 103 108 113 117 120 123 126 131 132 131 126 122 117 115 113 111 106 94 83 72 55 14 356 329 311 315 359 319 304 314 356 9 36 52 67 84 102 125 167
111 110 114 117 117 120 125 128 128 130 132 133 134 130 125 121 117 115 114 111 101 86 69 48 25 356 333 339 321 286 199 160 295 313 6 50 38 52 59 61 65 65 57 33
135 136 135 130 128 128 131 134 133 134 134 133 129 126 126 125 122 120 113 103 98 85 60 36 16 346 346 19 350 326 85 154 210 300 46 46 45 55 59 57 57 62 63 53
128 129 133 135 134 132 132 133 133 133 134 131 131 134 134 131 124 118 116 126 125 97 62 45 21 338 354 29 358 331 345 74 81 65 64 48 30 52 63 62 59 58 68 86
125 130 133 134 136 133 133 135 135 134 135 138 137 134 130 124 123 126 132 119 91 84 54 39 330 296 350 46 338 299 328 55 88 90 99 125 74 61 61 63 58 53 52 48
132 135 136 138 137 135 136 137 138 139 140 137 133 134 130 129 134 130 106 74 54 44 43 29 332 9 21 37 335 324 44 48 62 75 71 75 75 69 61 60 61 59 56 50
141 143 144 142 140 141 142 144 145 143 141 140 140 136 131 136 138 131 142 107 81 29 346 263 358 18 30 353 313 332 62 61 60 59 65 75 73 69 66 60 59 61 59 52
149 150 148 145 147 145 146 148 148 146 146 148 142 136 140 149 138 103 65 73 81 15 350 51 53 33 1 332 322 42 62 63 69 70 68 73 76 75 70 66 65 63 62 54
154 153 151 151 149 148 152 154 151 148 150 147 141 150 163 170 163 143 116 95 78 35 33 48 24 350 339 320 355 70 69 63 74 86 85 87 88 82 80 78 73 69 65 58
155 155 153 151 151 156 160 157 149 151 156 152 153 160 163 171 138 101 103 105 73 63 73 74 306 308 311 295 33 68 75 77 79 81 81 82 86 88 87 87 85 79 70 60
158 157 158 160 163 164 162 157 154 162 169 161 156 165 195 193 124 114 120 124 144 174 160 188 242 268 282 41 69 65 53 45 38 44 74 73 81 84 83 83 85 83 75 63
160 163 164 172 172 167 168 169 171 178 177 163 165 181 181 129 116 127 152 160 166 206 216 196 195 206 139 83 85 99 115 126 105 81 76 80 80 80 83 88 87 80 72 60
165 164 167 179 180 181 180 180 180 183 178 170 172 175 158 148 156 170 175 168 172 184 144 106 86 82 79 83 86 86 84 85 90 95 94 91 95 98 97 89 86 88 86 66